Location: *
(46.4530°S, 116.0000°E)
Time: 11:59:16
(UTC+00:00)

Daily predictions for brighter satellites

Satellite Brightness Start Highest point End
(mag) Time Altitude Azimuth Time Altitude Azimuth Time Altitude Azimuth
USA 234 3.4 12:24:57 10° NE 12:31:31 77° NW 12:38:10 10° SW
Cosmos 1066 Rocket 4.4 12:26:00 10° S 12:31:59 85° E 12:37:46 10° NNE
Cosmos 2208 Rocket 4.3 12:26:44 10° NNW 12:32:05 80° WSW 12:37:34 10° SSE
Cosmos 2298 Rocket 4.1 12:29:13 10° SSW 12:34:38 89° WNW 12:39:59 10° NNE
Helios 1A 3.1 12:31:30 10° NNE 12:35:26 56° ESE 12:39:25 10° S
SJ-6B 2.8 12:32:48 10° S 12:36:20 72° WSW 12:39:50 10° NNW
SL-16 R/B 4.0 12:36:31 10° S 12:40:49 21° SE 12:45:05 10° E
USA 186 3.4 12:41:43 10° ESE 12:43:22 14° E 12:45:01 10° NE
Meteor 1-31 Rocket 2.5 12:40:11 10° SSE 12:43:46 86° ENE 12:47:17 10° NNW
Cosmos 2297 Rocket 2.3 12:44:17 10° N 12:49:52 63° ENE 12:55:30 10° SSE
Cosmos 1908 3.3 12:49:29 10° NNE 12:52:13 34° E 12:55:01 10° SSE
ERS-1 Rocket 4.1 12:47:59 10° SE 12:52:15 27° E 12:56:28 10° NNE
Cosmos 1980 3.8 12:47:50 10° SSW 12:53:34 72° ESE 12:59:04 11° NE
BREEZE M DEB (TANK) 3.4 12:50:48 10° W 12:54:02 72° S 13:04:11 10° ESE
Cosmos 1536 2.6 12:51:09 10° N 12:54:51 65° E 12:58:36 10° SSE
USA 229 3.6 12:50:03 10° SW 12:56:41 75° NW 13:02:30 11° NNE
USA 229 DEB 3.6 12:50:09 10° SW 12:56:47 75° NW 13:02:36 11° NNE
CZ-4B R/B 3.8 12:54:46 10° SSE 12:59:41 36° E 13:04:35 10° NNE
Cosmos 1818 4.3 12:54:42 10° SSW 12:59:56 46° SE 13:05:00 11° ENE
SL-14 R/B 3.5 12:56:37 10° S 13:00:23 53° ESE 13:03:45 12° NNE
CZ-4B R/B 4.4 12:57:07 10° S 13:01:05 61° WSW 13:04:51 10° NNW
CSL-04 Debris 4.2 12:55:41 10° SSE 13:01:08 62° ENE 13:06:28 10° N
Cosmos 1300 4.1 13:01:31 11° ENE 13:02:25 13° E 13:03:46 10° ESE
CZ-4B DEB 4.3 13:00:48 10° SSE 13:06:16 60° ENE 13:11:39 10° N
Cosmos 2237 Rocket 2.3 13:00:48 10° SSW 13:06:36 83° ESE 13:11:49 13° NNE
NOSS 0 Rocket 4.3 13:00:37 10° SW 13:06:45 62° WNW 13:12:49 10° N
Cosmos 44 3.7 13:02:19 10° NW 13:07:21 68° SW 13:12:08 10° SSE
Terra 2.6 13:07:09 10° SSE 13:11:31 34° E 13:15:10 13° NNE
Cosmos 1328 Rocket 4.4 13:11:59 10° S 13:16:08 37° ESE 13:19:12 16° NE
Cosmos 1709 Rocket 4.0 13:11:08 10° N 13:17:21 74° E 13:23:42 10° SSE
CZ-2C R/B 3.4 13:15:49 10° SE 13:18:29 25° E 13:19:48 19° NE
CZ-4 R/B 1.6 13:15:42 10° S 13:19:31 67° WSW 13:23:19 10° NNW
Cosmos 1745 Rocket 4.1 13:15:03 10° NNW 13:21:14 80° W 13:27:33 10° S
SL-4 R/B 3.0 13:18:05 10° WSW 13:21:46 33° NW 13:24:25 16° NNE
Cosmos 1766 2.8 13:20:46 10° N 13:24:04 81° E 13:27:30 10° S
OAO 3 Rocket 4.5 13:22:30 10° NW 13:25:48 19° N 13:27:04 17° NNE
USA 290 4.3 13:23:32 10° NW 13:26:28 30° WSW 13:29:27 10° S
Cosmos 1151 Rocket 3.7 13:22:30 10° SSW 13:26:49 52° W 13:31:04 10° N
Okean-O 3.5 13:24:45 10° SSE 13:28:47 33° E 13:31:19 19° NNE
MOS 1 4.4 13:24:00 10° SSE 13:29:42 62° ENE 13:35:18 10° N
Okean O Rocket 2.2 13:26:00 10° SSE 13:30:11 39° E 13:33:01 18° NNE
SPOT 5 3.4 13:25:11 10° S 13:30:27 72° WSW 13:35:46 10° NNW
Cosmos 2263 Rocket 2.8 13:29:51 14° NNE 13:34:05 36° ENE 13:39:13 10° SE
Resurs 01 Rocket 4.3 13:31:47 10° SSW 13:35:07 21° WSW 13:38:26 10° WNW
BREEZE-M DEB (TANK) 1.5 13:37:02 10° W 13:40:14 76° N 13:41:51 20° ENE
Cosmos 2227 Rocket 2.2 13:34:58 10° NNW 13:40:37 69° ENE 13:46:20 10° SSE
ATLAS 3B R/B 3.5 13:41:09 10° SW 13:46:55 39° WNW 13:52:02 14° N
Sich 1 4.4 13:47:50 19° ENE 13:49:12 22° E 13:52:29 10° SE
Cosmos 1271 Rocket 3.6 13:46:46 10° SSW 13:50:01 37° W 13:52:29 15° NNW
ADEOS 3.8 13:45:05 10° SSE 13:50:23 76° WSW 13:55:37 10° NNW
Cosmos 1470 2.4 13:48:42 24° N 13:50:41 71° E 13:54:12 10° SSE
ARIANE 6 FM1 Upper Stage 3.3 13:46:17 10° NW 13:50:42 65° SW 13:55:13 10° SE
ATLAS CENTAUR R/B 0.9 13:54:44 38° NE 13:54:55 38° ENE 13:57:42 10° SE
ISS -3.8 14:01:15 10° NW 14:04:37 61° NNE 14:08:01 10° ESE
USA 245 3.4 14:03:31 10° SSE 14:07:10 42° E 14:07:52 36° NE
MetOp-B 4.5 14:02:51 10° S 14:08:17 69° WSW 14:13:38 10° NNW
Cosmos 1703 3.6 14:06:21 10° S 14:09:34 38° ESE 14:10:26 32° ENE
Helios 1B rocket 3.6 14:07:44 10° SE 14:10:38 22° E 14:10:53 21° ENE
Cosmos 1900 4.5 14:07:56 22° N 14:10:46 50° ENE 14:15:30 10° SE
Cosmos 2181 Rocket 4.1 14:05:45 10° S 14:12:19 86° W 14:16:44 22° N
CZ-4C R/B 3.3 14:04:02 10° N 14:12:32 49° ENE 14:19:44 10° SE
USA 186 3.7 14:11:02 10° SSW 14:13:21 23° WSW 14:15:39 10° NW
GP-B 3.8 14:10:24 10° SSE 14:14:38 40° E 14:16:14 29° NE
Cosmos 1420 Rocket 4.0 14:09:43 10° SSW 14:15:02 75° ESE 14:17:51 28° NNE
Cosmos 1975 3.7 14:13:06 14° NW 14:16:04 42° WSW 14:19:41 10° S
Cosmos 2074 Rocket 4.0 14:13:05 22° N 14:17:19 71° E 14:23:36 10° SSE
Meteor 1-23 Rocket 4.2 14:13:31 10° S 14:19:17 88° E 14:22:36 27° N
Nadezhda 3 Rocket 4.3 14:13:20 10° S 14:19:44 61° ESE 14:23:23 26° NNE
ATLAS 5 CENTAUR R/B 4.1 14:15:49 10° SSW 14:20:57 26° SSE 14:25:23 10° E
Ariane Rocket 3.5 14:19:11 10° SSE 14:24:04 42° E 14:26:00 30° NE
Cosmos 1515 Rocket 3.5 14:19:41 10° S 14:24:10 78° E 14:25:59 35° NNE
Cosmos 2082 4.0 14:21:57 27° N 14:24:48 49° ENE 14:30:20 10° SE
SL-16 R/B 2.2 14:19:53 10° SSW 14:25:39 83° WNW 14:28:40 29° NNE
Cosmos 1680 Rocket 3.6 14:23:39 27° N 14:26:24 59° ENE 14:31:41 10° SSE
USA 32 4.0 14:23:50 27° N 14:26:46 78° E 14:32:06 10° S
SPOT 3 Rocket 3.7 14:24:03 10° SSE 14:29:13 56° E 14:31:34 31° NNE
ERS-1 Rocket 4.1 14:26:19 10° S 14:31:05 43° WSW 14:35:50 10° NW
SME Rocket 4.5 14:25:38 23° NNE 14:31:31 90° ESE 14:37:27 10° SSW
Meteor 2-10 Rocket 4.5 14:29:36 27° NE 14:31:46 37° E 14:37:00 10° SSE
BREEZE-M TANK 3.9 14:27:55 10° W 14:32:23 83° N 14:48:16 10° E
Cosmos 1624 Rocket 4.2 14:28:15 10° SSW 14:33:33 63° ESE 14:36:02 30° NE
Cosmos 1300 4.0 14:32:41 17° WNW 14:34:04 24° WSW 14:36:27 10° SSW
Cosmos 2297 Rocket 4.4 14:29:37 10° WNW 14:34:20 26° SW 14:39:05 10° S
CSL-04 DEB 4.2 14:33:21 10° SSE 14:37:16 87° WSW 14:38:45 37° NNW
CZ-2C R/B 4.2 14:39:31 29° NNW 14:41:30 50° W 14:45:53 10° SSW
CZ-4B R/B 3.8 14:38:05 10° S 14:41:45 44° WSW 14:44:15 19° NW
Cosmos 494 Rocket 4.1 14:40:19 34° NNE 14:42:18 54° ENE 14:47:22 10° SSE
Spot 2 Rocket 3.9 14:39:39 10° S 14:44:45 61° WSW 14:48:25 19° NNW
Cosmos 2219 3.2 14:42:12 21° NNW 14:46:14 88° ENE 14:52:01 10° SSE
Cosmos 1607 4.2 14:40:00 10° NW 14:46:25 74° SW 14:52:53 10° SE
Terra 3.5 14:44:45 10° S 14:48:57 31° WSW 14:53:06 10° NW
Cosmos 2237 Rocket 4.3 14:46:26 10° WSW 14:49:52 16° W 14:53:17 10° NW
Cosmos 2184 Rocket 4.2 14:46:51 21° NNW 14:51:05 70° W 14:57:23 10° S
Cosmos 1943 3.5 14:45:44 10° SSW 14:51:24 62° ESE 14:54:15 29° NE
Okean 3 3.6 14:47:57 10° S 14:52:00 57° ESE 14:52:58 44° NE
IRS-1C Rocket 4.0 14:47:36 10° SSE 14:52:58 82° ENE 14:55:31 32° N
USA 281 3.2 14:48:09 10° SSE 14:54:50 87° ENE 14:59:38 20° NNW
CZ-2C R/B 4.2 14:53:07 23° ENE 14:56:10 40° ESE 15:01:36 10° S
DELTA 2 DEB (DPAF) 3.9 14:55:30 45° NNW 14:56:24 61° WNW 15:00:14 10° SSW
Cosmos 2084 Rocket 3.5 14:56:34 49° NNE 14:56:59 51° NE 15:01:06 10° SE
Cosmos 1805 Rocket 3.5 14:56:51 44° N 14:58:13 79° E 15:02:41 10° SSE
CZ-4B R/B 4.5 14:59:22 10° S 15:04:28 47° WSW 15:08:29 16° NW
Okean-O 4.4 15:01:09 10° S 15:04:58 28° WSW 15:08:40 10° NW
Okean O Rocket 3.6 15:02:35 10° S 15:06:10 24° WSW 15:09:45 10° WNW
Cosmos 2341 Rocket 4.3 15:06:11 32° NNE 15:08:55 54° E 15:15:07 10° SSE
Cosmos 1633 Rocket 4.4 15:08:55 25° ENE 15:09:36 26° E 15:13:15 10° SSE
Geosat 3.9 15:04:38 10° SSE 15:09:44 81° ENE 15:11:59 34° NNW
Cosmos 2327 Rocket 4.5 15:08:02 33° N 15:11:03 77° E 15:17:22 10° S
Cosmos 1844 Rocket 3.1 15:11:16 36° NNE 15:12:50 45° ENE 15:18:14 10° SE
Cosmos 2263 Rocket 3.4 15:12:33 10° NW 15:17:55 41° SW 15:23:18 10° SSE
Cosmos 1500 Rocket 3.8 15:17:27 38° NW 15:19:00 64° W 15:23:30 10° S
Cosmos 1603 4.2 15:15:51 10° SSW 15:21:32 54° ESE 15:24:33 27° NE
Cosmos 1867 3.9 15:17:35 14° NW 15:22:08 64° SW 15:27:33 10° SSE
Cosmos 2227 Rocket 4.3 15:20:38 10° W 15:25:12 24° SW 15:29:49 10° S
Sich 1 4.2 15:24:16 23° WNW 15:26:10 34° WSW 15:30:04 10° S
PSLV R/B 4.3 15:25:23 34° NW 15:26:22 39° W 15:30:23 10° SSW
Cosmos 2056 Rocket 4.2 15:23:00 10° SSW 15:28:11 46° WNW 15:29:57 34° NNW
ATLAS CENTAUR R/B 3.5 15:27:57 10° W 15:29:55 16° SW 15:31:54 10° S
Okean 1-7 3.6 15:26:19 10° S 15:30:28 47° ESE 15:31:25 39° ENE
SL-19 R/B 4.1 15:29:33 10° SSE 15:33:22 73° ENE 15:33:42 67° NNE
Cosmos 1110 Rocket 4.0 15:29:38 10° SSW 15:34:58 83° ESE 15:36:48 42° NNE
Okean 2 4.5 15:32:07 10° SSW 15:35:39 31° W 15:36:21 29° WNW
Cosmos 1862 Rocket 3.6 15:32:32 10° S 15:36:55 69° E 15:37:49 52° NE
Cosmos 1953 3.9 15:36:55 20° E 15:37:04 20° E 15:39:55 10° SE
NOSS 3-4 (A) 3.6 15:32:41 10° SW 15:40:03 87° SE 15:43:18 32° NE
NOSS 3-4 (C) 3.6 15:32:50 10° SW 15:40:13 87° SE 15:43:28 31° NE
ISS -2.3 15:38:17 10° W 15:41:33 40° SSW 15:44:50 10° ESE
Meteor 1-24 Rocket 4.5 15:36:36 10° S 15:42:20 47° ESE 15:45:00 28° NE
Helios 1B rocket 3.7 15:40:46 10° S 15:43:59 29° WSW 15:45:13 23° WNW
Landsat 5 4.5 15:43:24 32° WNW 15:44:16 35° W 15:48:16 10° SSW
Cosmos 2228 Rocket 3.2 15:41:17 10° S 15:45:44 65° ESE 15:46:44 49° NE
TSX-5 4.4 15:46:34 10° SSW 15:49:31 36° SE 15:49:50 35° ESE
Cosmos 2218 Rocket 4.0 15:52:25 36° NNW 15:55:16 84° W 16:01:49 10° S
Cosmos 1758 3.9 15:59:07 40° WNW 15:59:41 43° WSW 16:03:19 10° S
Cosmos 1331 Rocket 4.1 15:54:32 10° SSW 15:59:51 67° WNW 16:01:22 45° N
Cosmos 1707 Rocket 3.6 15:55:32 10° SSW 15:59:58 71° W 16:00:49 55° NNW
Cosmos 1844 3.6 15:58:05 39° NNW 16:00:20 89° WSW 16:06:06 10° SSE
CZ-4C R/B 3.6 15:52:36 10° WNW 16:01:05 55° SW 16:08:00 10° SE
SL-24 DEB 4.2 16:00:59 50° NNE 16:02:07 72° E 16:06:43 10° S
ATLAS 5 CENTAUR R/B 1.9 15:58:36 10° SW 16:04:33 85° SE 16:06:25 40° NE
Cosmos 381 Rocket 4.5 16:02:17 35° NNW 16:05:12 83° WSW 16:11:34 10° SSE
Cosmos 1048 Rocket 4.5 16:03:22 30° NW 16:05:53 57° WSW 16:11:09 10° SSE
SL-16 R/B 4.3 16:06:17 10° WSW 16:08:48 13° W 16:10:31 12° WNW
Meteor 2-5 Rocket 4.0 16:04:21 10° S 16:10:24 71° ESE 16:12:57 36° NNE
ARIANE 5 R/B 2.9 16:08:54 10° SSE 16:13:23 57° E 16:14:14 48° NE
Cosmos 1666 Rocket 4.0 16:15:07 42° NW 16:16:15 54° WSW 16:20:42 10° S
IDEFIX/ARIANE 42P 3.3 16:22:19 25° NE 16:25:04 48° ESE 16:30:10 10° S
PSLV R/B 4.4 16:22:36 10° S 16:24:47 31° SW 16:24:47 31° SW
USA 215 4.0 16:21:17 10° ESE 16:27:07 33° NE 16:28:39 30° NNE
Meteor 1-16 Rocket 4.4 16:29:59 37° NNE 16:31:48 55° E 16:37:04 10° SSE
CZ-2C R/B 4.2 16:34:05 30° NW 16:35:55 36° W 16:41:18 10° SSW
Cosmos 1821 Rocket 4.3 16:33:14 33° NW 16:36:03 61° WSW 16:42:14 10° S
Cosmos 1452 Rocket 4.1 16:31:08 10° SW 16:36:07 42° WNW 16:37:16 37° NW
BlueWalker 3 2.1 16:39:12 54° ENE 16:39:12 54° ENE 16:42:22 10° ESE
Cosmos 1727 Rocket 4.1 16:34:33 10° SSW 16:40:46 68° W 16:43:19 37° NNW
Cosmos 1703 Rocket 3.5 16:40:30 10° SSW 16:44:56 74° W 16:45:52 53° NNW
Cosmos 1934 Rocket 4.1 16:42:50 34° NNE 16:45:33 65° E 16:51:45 10° SSE
Cosmos 1328 4.2 16:42:47 10° SSW 16:46:19 42° W 16:46:22 42° W
DELTA 2 R/B (1) 4.0 16:47:24 38° NNE 16:47:24 38° NNE 16:52:14 10° ENE
Cosmos 1633 Rocket 4.3 16:45:50 26° WNW 16:47:07 31° WSW 16:51:04 10° S
Cosmos 1844 Rocket 4.0 16:52:52 15° WNW 16:56:51 34° SW 17:02:00 10° SSE
Cosmos 1992 Rocket 3.9 16:52:14 10° SSW 16:57:33 86° WNW 16:59:44 37° NNE
CZ-2D R/B 3.7 16:52:53 10° NE 16:57:42 33° ESE 17:02:36 10° S
Spot 4 4.0 16:52:58 10° S 16:57:51 66° WSW 16:59:32 40° NW
SeaSat 1 2.7 16:56:43 23° NE 16:59:47 69° ESE 17:04:44 10° SSW
USA 267 4.2 16:55:29 10° E 17:01:48 51° SSE 17:08:09 10° SW
Cosmos 2123 Rocket 4.0 16:55:49 10° S 17:02:11 85° W 17:05:14 33° N
Meteor 1-12 Rocket 4.2 17:00:22 38° NNW 17:02:42 87° W 17:08:28 10° S
ALOS 2 2.9 17:04:44 10° S 17:09:08 57° WSW 17:10:31 39° NW
Cosmos 2292 Rocket 3.5 17:06:01 10° S 17:10:02 88° E 17:11:46 39° N
Meteor 2-8 Rocket 4.4 17:08:41 34° NNW 17:11:34 82° W 17:17:51 10° S
Cosmos 1953 3.4 17:11:17 28° W 17:11:57 30° WSW 17:15:20 10° SSW
USA 276 2.7 17:12:53 43° SW 17:13:14 46° S 17:16:07 10° ESE
BREEZE-M DEB (TANK) 4.2 16:59:28 10° W 17:13:45 73° S 17:17:20 10° E
Cosmos 1933 Rocket 4.0 17:12:59 39° NW 17:14:16 54° WSW 17:18:41 10° S
MetOp-A 3.8 17:13:34 10° S 17:17:21 49° WSW 17:18:15 40° WNW
Intercosmos 25 Rocket 4.2 17:15:01 10° SSW 17:18:21 38° W 17:19:04 35° WNW
CZ-2C R/B 3.6 17:13:28 10° SSE 17:18:36 40° E 17:21:40 22° NNE
ISS -2.0 17:15:40 10° WSW 17:18:52 35° S 17:22:03 10° ESE
Cosmos 1833 Rocket 2.6 17:14:31 10° SSW 17:20:14 87° WNW 17:23:46 24° NNE
H-2A R/B 4.1 17:18:40 10° ENE 17:21:53 23° ESE 17:25:06 10° SSE
Cosmos 839 Rocket 3.9 17:16:03 10° SW 17:22:17 80° WNW 17:27:24 16° NNE
Aureole 3 4.5 17:17:58 10° S 17:24:37 79° E 17:28:13 25° NNE
Cosmos 2082 Rocket 4.1 17:20:11 10° S 17:25:11 29° SE 17:30:07 10° ENE
Cosmos 2278 Rocket 3.2 17:26:03 22° NNE 17:28:56 37° ENE 17:34:08 10° SE
Cosmos 1269 Rocket 4.2 17:27:57 32° N 17:30:21 63° ENE 17:35:38 10° SSE
Cosmos 44 Rocket 3.3 17:30:54 33° NW 17:33:07 78° SW 17:38:00 10° SE
Cosmos 1943 Rocket 3.0 17:30:26 24° NNE 17:33:15 42° ENE 17:38:34 10° SE
ACS3 Solar Sail 3.2 17:29:58 10° NE 17:35:34 36° ESE 17:41:05 10° S
RESURS DK-1 2.1 17:34:54 10° SSW 17:38:56 78° WNW 17:40:34 34° NNE
Cosmos 1606 2.5 17:39:03 40° E 17:39:04 40° E 17:41:32 10° SSE
Cosmos 1869 Rocket 4.3 17:37:31 31° WNW 17:39:05 43° WSW 17:43:23 10° S
Resurs 1-4 Rocket 2.2 17:39:28 20° NNE 17:43:14 81° ESE 17:48:35 10° SSW
FENGYUN 3A 3.8 17:40:48 30° NNW 17:43:20 56° W 17:48:44 10° SSW
ADEOS II 2.7 17:39:16 11° NE 17:44:12 55° ESE 17:49:23 10° S
MSX 4.5 17:42:19 28° NW 17:44:40 40° W 17:50:10 10° SSW
Cosmos 921 Rocket 3.4 17:43:12 33° WNW 17:44:43 49° WSW 17:48:50 10° S
ATLAS 5 CENTAUR R/B 3.7 17:43:02 10° WSW 17:45:51 15° WNW 17:45:51 15° WNW
Cosmos 1733 Rocket 3.1 17:51:26 33° NNW 17:53:23 77° W 17:57:54 10° S
Cosmos 2242 Rocket 3.6 17:49:21 10° SSW 17:53:46 64° W 17:55:43 31° NNW
ALOS 2.5 17:51:05 17° NNE 17:54:39 68° ESE 17:59:16 10° S
NPP 4.3 17:52:39 27° NW 17:54:48 38° W 17:59:53 10° SSW
Envisat 3.1 17:54:41 17° NNE 17:58:43 82° ESE 18:03:53 10° SSW
IDEFIX/ARIANE 42P 3.8 18:03:01 21° WNW 18:04:44 25° W 18:09:07 10° SW
Cosmos 1447 Rocket 4.5 17:59:04 10° SSW 18:05:20 73° W 18:09:58 19° N
USA 215 3.3 18:03:56 10° SE 18:10:34 83° SW 18:15:59 16° WNW
NOAA 11 4.3 18:07:04 22° N 18:10:39 61° W 18:16:10 10° SSW
Cosmos 1908 Rocket 4.2 18:08:49 18° NNE 18:11:53 51° E 18:16:10 10° SSE
USA 305 4.3 18:11:56 13° NE 18:12:39 13° ENE 18:14:23 10° E
BlueWalker 3 3.2 18:13:00 10° W 18:16:26 37° SSW 18:19:54 10° SE
SJ 16-02 3.0 18:13:05 11° NNE 18:16:32 26° E 18:20:09 10° SE
Timation 2 Rocket 3.9 18:12:48 23° NNW 18:16:47 87° ENE 18:22:59 10° SSE
Cosmos 1340 Rocket 3.5 18:19:03 25° WNW 18:20:40 38° WSW 18:24:20 10° S
AQUA 4.4 18:18:28 10° NNE 18:23:06 59° ESE 18:27:48 10° S
Cosmos 1674 Rocket 3.7 18:22:01 10° SSW 18:26:30 62° W 18:29:35 19° N
DELTA 2 R/B (1) 4.0 18:28:04 12° WNW 18:32:52 38° N 18:38:01 10° ENE
Cosmos 1763 Rocket 3.5 18:29:53 10° SSW 18:35:10 73° WNW 18:40:26 10° NNE
CZ-2D R/B 2.7 18:33:56 18° NNW 18:37:32 40° W 18:42:45 10° SSW
SeaSat 1 3.9 18:36:19 17° NW 18:37:35 19° WNW 18:41:02 10° WSW
Cosmos 1378 Rocket 4.4 18:34:52 10° SSW 18:38:46 32° W 18:41:03 20° NW
Cosmos 1140 Rocket 4.3 18:35:13 17° WNW 18:38:50 41° WSW 18:43:50 10° S
Timation 1 Rocket 4.5 18:35:49 10° SW 18:41:43 55° WNW 18:47:31 10° N
H-2A R/B 2.1 18:38:23 10° N 18:43:45 80° WNW 18:49:17 10° SSW
Cosmos 1025 Rocket 3.3 18:40:00 10° SSW 18:44:20 54° W 18:47:52 15° NNW
Cosmos 2100 Rocket 4.1 18:38:58 15° NNW 18:44:28 77° W 18:50:57 10° S
USA 267 3.2 18:38:06 10° NE 18:44:40 71° NW 18:51:16 10° SW
Cosmos 2173 Rocket 4.1 18:40:21 14° NNW 18:45:56 78° W 18:52:26 10° S
USA 276 3.2 18:43:55 10° WSW 18:46:43 42° S 18:49:39 10° E
COSMOS 2406 3.7 18:48:18 10° SSW 18:54:06 66° ESE 18:59:48 10° NE
ISS -3.7 18:52:29 10° WSW 18:55:56 89° SSE 18:59:22 10° ENE
H-2A R/B 2.6 18:54:13 15° NNW 18:57:02 34° W 19:00:46 10° SSW
CZ-2C R/B 3.7 18:53:51 10° S 18:58:43 34° WSW 19:03:07 12° NW
Cosmos 1725 Rocket 4.0 18:53:32 10° N 18:59:45 88° E 19:06:04 10° S
Cosmos 407 Rocket 4.0 18:58:02 14° NW 19:02:23 49° WSW 19:07:39 10° SSE
ADEOS Rocket 3.4 18:55:44 10° N 19:02:31 52° W 19:08:42 10° SSW
Cosmos 1833 Rocket 4.4 19:00:32 10° WSW 19:03:14 14° W 19:05:22 11° WNW
CZ-2C R/B 3.1 18:59:02 10° NNE 19:03:38 55° ESE 19:08:12 10° S
Cosmos 2221 Rocket 4.3 19:02:37 10° SSW 19:06:52 38° W 19:10:57 11° NNW
Cosmos 2369 Rocket 3.8 19:02:08 10° NNE 19:07:02 31° ENE 19:11:58 10° SE
Cosmos 371 Rocket 3.5 19:02:42 10° N 19:07:27 68° ENE 19:12:16 10° SSE
Magion 5 Rocket2 4.4 18:58:17 12° NNW 19:07:35 79° NE 19:12:18 10° SE
Cosmos 1812 3.8 19:05:11 10° NNE 19:07:46 29° E 19:10:23 10° SSE
Cosmos 1300 Rocket 3.6 19:05:14 11° NNW 19:09:26 70° W 19:13:56 10° S
Cosmos 2082 Rocket 2.4 19:03:57 10° SW 19:09:35 56° WNW 19:15:08 10° N
Cosmos 1656 Rocket 4.0 19:05:19 10° N 19:10:43 62° ENE 19:16:08 10° SSE
Cosmos 1190 Rocket 4.0 19:06:56 11° NNW 19:11:54 83° WSW 19:17:12 10° SSE
Cosmos 2278 Rocket 3.0 19:07:52 11° WNW 19:12:57 40° SW 19:18:22 10° SSE
Cosmos 540 Rocket 4.0 19:08:18 10° SW 19:13:08 40° WNW 19:17:55 10° N
Cosmos 1954 Rocket 4.1 19:09:10 10° NNW 19:14:24 86° ENE 19:19:47 10° SSE
Cosmos 1943 Rocket 3.2 19:11:55 10° WNW 19:17:03 35° SW 19:22:17 10° SSE
ACS3 Solar Sail 2.3 19:12:24 10° NNW 19:18:18 43° W 19:24:09 10° SSW
Cosmos 676 Rocket 4.3 19:13:14 10° NNW 19:18:26 71° ENE 19:23:44 10° SSE
ARGOS 3.2 19:14:07 10° NNE 19:19:30 83° WNW 19:24:59 10° SSW
MOZ.5/SAFIR/RUBIN 5/SL-8 4.3 19:16:42 10° SSE 19:21:24 61° ENE 19:26:03 10° N
DEBRIS 4.2 19:07:40 10° WNW 19:22:15 89° NNE 19:26:09 10° ESE
Resurs 1-4 Rocket 3.8 19:20:39 10° WNW 19:23:38 15° W 19:26:38 10° SW
ADEOS II 3.4 19:20:04 10° NW 19:24:04 22° W 19:28:10 10° SW
SL-08 RB Rocket 4.0 19:23:23 10° NNE 19:27:52 74° ESE 19:32:25 10° S
Cosmos 1400 Rocket 4.2 19:24:29 10° NNE 19:27:58 36° E 19:31:32 10° SSE
Spot 2 4.5 19:23:59 10° SSE 19:28:06 58° ENE 19:32:03 10° N
Cosmos 2016 Rocket 4.1 19:22:22 10° NNW 19:28:26 62° WSW 19:34:35 10° S
ALOS 4.1 19:29:32 10° WNW 19:32:04 14° W 19:34:37 10° SW
Cosmos 1602 3.7 19:31:17 10° S 19:34:20 58° E 19:37:18 10° NNE
CENTAUR R/B 4.3 19:27:22 10° N 19:34:55 35° ENE 19:41:21 10° SE
Cosmos 841 Rocket 3.5 19:30:36 10° SSW 19:35:49 81° WNW 19:41:00 10° NNE
Cosmos 1869 3.1 19:33:39 10° NNW 19:37:20 70° W 19:41:03 10° S
Lacrosse 4 Rocket 3.9 19:35:44 10° NE 19:37:56 14° ENE 19:40:08 10° ESE
Cosmos 1782 Rocket 4.2 19:34:07 10° NW 19:38:16 40° WSW 19:42:30 10° S
USA 305 2.3 19:35:37 10° NW 19:38:42 88° SW 19:42:40 10° ESE
Cosmos 2251 Rocket 4.2 19:36:38 10° NW 19:41:37 42° WSW 19:46:39 10° S
ATLAS 2AS CENTAUR R/B 3.1 19:35:44 10° SW 19:43:13 84° SE 19:50:38 10° NE
